Date,TemperatureHighF,TemperatureAvgF,TemperatureLowF,DewpointHighF,DewpointAvgF,DewpointLowF,HumidityHigh,HumidityAvg,HumidityLow,PressureMaxIn,PressureMinIn,WindSpeedMaxMPH,WindSpeedAvgMPH,GustSpeedMaxMPH,PrecipitationSumIn
2013-2-1,43.1,25.6,11.8,22.1,12.6,6.3,82,60,31,30.52,30.23,11,2,11,0.00
2013-2-2,54.2,38.0,21.5,33.3,27.4,19.3,93,68,42,30.29,30.20,16,2,16,0.00
2013-2-3,55.1,42.0,32.7,32.2,26.9,18.8,84,59,29,30.30,30.00,13,1,13,0.00
2013-2-4,61.2,46.6,32.8,47.3,38.4,28.8,95,75,48,30.00,29.83,16,2,16,0.15
2013-2-5,65.5,41.8,26.1,48.8,32.8,25.1,97,77,29,30.10,29.94,13,1,13,0.01
2013-2-6,64.1,44.7,28.6,42.8,35.0,27.6,97,73,42,30.17,29.97,15,1,15,0.00
2013-2-7,59.1,49.0,39.5,53.2,45.6,36.6,95,88,73,30.08,29.85,17,2,17,0.19
2013-2-8,50.2,40.0,31.2,40.3,32.6,28.5,95,76,48,30.32,30.08,17,3,17,0.00
2013-2-9,45.4,38.3,33.7,38.2,33.6,30.2,94,84,60,30.26,29.89,12,2,12,0.10
2013-2-10,61.4,51.9,39.7,53.6,38.1,24.8,97,65,31,30.04,29.64,27,4,27,0.70
2013-2-11,54.9,39.2,26.3,30.7,27.2,24.1,94,66,34,30.20,30.04,10,1,10,0.00
2013-2-12,43.2,32.9,26.5,35.9,30.3,25.0,96,90,66,30.18,29.93,7,1,7,0.21
2013-2-13,48.1,38.1,33.4,33.8,32.8,30.4,95,82,51,29.99,29.93,8,1,8,0.06
2013-2-14,57.2,47.8,37.4,36.6,33.2,29.5,84,58,44,30.16,29.97,9,2,9,0.00
2013-2-15,44.8,36.7,22.7,31.5,23.1,13.9,83,59,35,30.34,30.16,17,3,17,0.00
2013-2-16,40.3,32.1,21.6,23.9,20.3,14.7,86,63,39,30.36,30.17,14,2,14,0.00
2013-2-17,66.5,47.0,24.9,34.3,28.0,20.5,88,52,26,30.17,29.83,18,2,18,0.00
2013-2-18,55.1,54.3,53.2,44.5,38.1,31.8,70,55,42,29.83,29.71,19,4,19,0.00
2013-2-19,43.1,30.6,24.3,21.7,19.8,16.0,85,67,35,30.33,30.27,7,0,7,0.00
2013-2-20,33.3,29.5,23.7,26.6,20.5,15.2,89,70,49,30.34,30.13,17,3,17,0.01
2013-2-21,34.8,30.5,27.5,33.2,27.6,20.1,97,89,68,30.16,29.75,17,3,17,0.00
2013-2-22,38.5,29.8,22.7,32.3,23.8,18.3,91,79,58,30.16,29.88,22,4,22,0.04
2013-2-23,48.9,30.4,18.1,27.9,21.9,16.3,95,74,40,30.15,29.99,9,1,9,0.05
2013-2-24,55.9,47.5,40.6,36.1,34.1,32.8,74,60,47,29.91,29.88,13,4,13,0.01
2013-2-25,44.9,39.1,35.4,39.6,33.2,29.3,95,80,62,29.92,29.43,17,4,17,0.58
2013-2-26,35.8,33.8,32.3,34.5,31.5,30.4,96,91,87,29.90,29.37,16,3,16,0.29
2013-2-27,39.9,34.9,32.8,31.7,29.4,26.9,89,80,68,30.09,29.86,21,4,21,0.00
2013-2-28,36.7,32.9,30.2,28.2,26.9,24.5,86,78,69,30.22,30.08,15,3,15,0.00